Regional Weather Roundup
Issued by NWS Charleston, WV

Home | Current Version | Previous Version | Text Only | Print | Product List | Glossary On
Versions: 1 2 3 4 5 6 7 8 9 10 11 12 13 14 15 16 17 18 19 20 21 22 23 24 25 26 27 28
000
ASUS41 KRLX 221910
RWRRLX
West Virginia Regional Weather Roundup
National Weather Service Charleston WV
200 PM EST THU FEB 22 2018

Note: "fair" indicates few or no clouds below 12,000 feet with no
significant weather and/or obstructions to visibility.

WVZ003-222000-
Northern Panhandle of West Virginia

CITY           SKY/WX    TMP DP  RH WIND       PRES   REMARKS
WHEELING       LGT RAIN  40  37  89 N10G21    30.46S FOG
$$

WVZ009-222000-
Northwest West Virginia

CITY           SKY/WX    TMP DP  RH WIND       PRES   REMARKS
PARKERSBURG    CLOUDY    45  42  89 N8        30.46R
$$

WVZ006-222000-
Western West Virginia

CITY           SKY/WX    TMP DP  RH WIND       PRES   REMARKS
HUNTINGTON     LGT RAIN  47  44  90 N5        30.42R FOG
$$

WVZ015-222000-
West Central West Virginia

CITY           SKY/WX    TMP DP  RH WIND       PRES   REMARKS
CHARLESTON     CLOUDY    49  48  97 CALM      30.41R FOG
$$

WVZ022-031-222000-
North Central West Virginia

CITY           SKY/WX    TMP DP  RH WIND       PRES   REMARKS
CLARKSBURG     CLOUDY    45  41  86 CALM      30.41R
MORGANTOWN     LGT RAIN  41  40  96 NW3       30.42R
$$

WVZ025-035-042-045-222000-
Southern West Virginia

CITY           SKY/WX    TMP DP  RH WIND       PRES   REMARKS
BECKLEY        CLOUDY    72  53  51 SW16G25   30.35F
LOGAN          CLOUDY    54  54 100 CALM      30.40R FOG
BLUEFIELD      FAIR      72  49  44 W22G35    30.39S
LEWISBURG      FAIR      76  52  42 SW20G25   30.35S
$$

WVZ047-222000-
Northern Mountains of West Virginia

CITY           SKY/WX    TMP DP  RH WIND       PRES   REMARKS
ELKINS         CLOUDY    51  47  86 N6        30.39R
$$

WVZ052-222000-
Eastern Panhandle of West Virginia

CITY           SKY/WX    TMP DP  RH WIND       PRES   REMARKS
MARTINSBURG    CLOUDY    41  40  96 N10       30.48R FOG
PETERSBURG     DRIZZLE   45  40  83 N8        30.46R
$$




USA.gov is the U.S. government's official web portal to all federal, state and local government web resources and services.